IDEFIX & ARIANE 42P R/B

Last updated on Sun Jun 21 2026 00:02:15 GMT+0000 (Coordinated Universal Time)

1 27422U 02021B 26171.34575801 .00000157 00000+0 76395-4 0 9998 2 27422 98.5942 108.7947 0010639 243.5673 116.4419 14.31083354258701
UTC large
Height (km)
Speed (km/s)
/
Latitude / Longitude
Inclination (degrees)
Orbital Period (minutes)
Azimuth
Elevation
Range (km)
Doppler Factor

Next 0 passes for location: London (51.5072 / 0.1276)

No passes found over London.
IDEFIX & ARIANE 42P R/B